Year,Month,Day,Hour,Minute,Value (Times are PST for windgust in km/hr)
2013,09,29,00,00,17.70
2013,09,29,00,01,17.70
2013,09,29,00,02,11.30
2013,09,29,00,03,12.90
2013,09,29,00,04,14.50
2013,09,29,00,05,19.30
2013,09,29,00,06,16.10
2013,09,29,00,07,19.30
2013,09,29,00,08,20.90
2013,09,29,00,09,14.50
2013,09,29,00,10,16.10
2013,09,29,00,11,22.50
2013,09,29,00,12,16.10
2013,09,29,00,13,14.50
2013,09,29,00,14,19.30
2013,09,29,00,15,19.30
2013,09,29,00,16,17.70
2013,09,29,00,17,11.30
2013,09,29,00,18,17.70
2013,09,29,00,19,16.10
2013,09,29,00,20,17.70
2013,09,29,00,21,16.10
2013,09,29,00,22,20.90
2013,09,29,00,23,19.30
2013,09,29,00,24,17.70
2013,09,29,00,25,17.70
2013,09,29,00,26,19.30
2013,09,29,00,27,19.30
2013,09,29,00,28,17.70
2013,09,29,00,29,14.50
2013,09,29,00,30,14.50
2013,09,29,00,31,16.10
2013,09,29,00,32,14.50
2013,09,29,00,33,17.70
2013,09,29,00,34,17.70
2013,09,29,00,35,16.10
2013,09,29,00,36,19.30
2013,09,29,00,37,9.60
2013,09,29,00,38,17.70
2013,09,29,00,39,20.90
2013,09,29,00,40,16.10
2013,09,29,00,41,14.50
2013,09,29,00,42,11.30
2013,09,29,00,43,16.10
2013,09,29,00,44,17.70
2013,09,29,00,45,11.30
2013,09,29,00,46,14.50
2013,09,29,00,47,19.30
2013,09,29,00,48,20.90
2013,09,29,00,49,16.10
2013,09,29,00,50,24.20
2013,09,29,00,51,20.90
2013,09,29,00,52,17.70
2013,09,29,00,53,16.10
2013,09,29,00,54,16.10
2013,09,29,00,55,14.50
2013,09,29,00,56,16.10
2013,09,29,00,57,11.30
2013,09,29,00,58,14.50
2013,09,29,00,59,11.30
2013,09,29,01,00,8.10
2013,09,29,01,01,11.30
2013,09,29,01,02,8.10
2013,09,29,01,03,6.40
2013,09,29,01,04,9.60
2013,09,29,01,05,3.20
2013,09,29,01,06,6.40
2013,09,29,01,07,3.20
2013,09,29,01,10,3.20
2013,09,29,01,11,9.60
2013,09,29,01,12,9.60
2013,09,29,01,13,1.60
2013,09,29,01,14,4.80
2013,09,29,01,15,3.20
2013,09,29,01,16,6.40
2013,09,29,01,17,6.40
2013,09,29,01,18,6.40
2013,09,29,01,19,9.60
2013,09,29,01,20,8.10
2013,09,29,01,21,3.20
2013,09,29,01,22,1.60
2013,09,29,01,23,6.40
2013,09,29,01,24,4.80
2013,09,29,01,25,6.40
2013,09,29,01,26,6.40
2013,09,29,01,27,6.40
2013,09,29,01,28,6.40
2013,09,29,01,29,9.60
2013,09,29,01,30,9.60
2013,09,29,01,31,8.10
2013,09,29,01,32,12.90
2013,09,29,01,33,12.90
2013,09,29,01,34,6.40
2013,09,29,01,35,4.80
2013,09,29,01,36,6.40
2013,09,29,01,37,6.40
2013,09,29,01,38,4.80
2013,09,29,01,39,11.30
2013,09,29,01,40,8.10
2013,09,29,01,41,8.10
2013,09,29,01,42,12.90
2013,09,29,01,43,16.10
2013,09,29,01,44,16.10
2013,09,29,01,45,8.10
2013,09,29,01,46,8.10
2013,09,29,01,47,9.60
2013,09,29,01,48,14.50
2013,09,29,01,49,9.60
2013,09,29,01,50,8.10
2013,09,29,01,51,9.60
2013,09,29,01,52,9.60
2013,09,29,01,53,8.10
2013,09,29,01,54,3.20
2013,09,29,01,55,11.30
2013,09,29,01,56,14.50
2013,09,29,01,57,11.30
2013,09,29,01,58,11.30
2013,09,29,01,59,9.60
2013,09,29,02,00,8.10
2013,09,29,02,01,9.60
2013,09,29,02,02,9.60
2013,09,29,02,03,11.30
2013,09,29,02,04,14.50
2013,09,29,02,05,11.30
2013,09,29,02,06,8.10
2013,09,29,02,07,6.40
2013,09,29,02,08,8.10
2013,09,29,02,09,6.40
2013,09,29,02,10,9.60
2013,09,29,02,11,6.40
2013,09,29,02,12,6.40
2013,09,29,02,13,8.10
2013,09,29,02,14,16.10
2013,09,29,02,15,9.60
2013,09,29,02,16,11.30
2013,09,29,02,17,11.30
2013,09,29,02,18,9.60
2013,09,29,02,19,8.10
2013,09,29,02,20,6.40
2013,09,29,02,21,3.20
2013,09,29,02,22,3.20
2013,09,29,02,23,6.40
2013,09,29,02,24,6.40
2013,09,29,02,26,3.20
2013,09,29,02,27,3.20
2013,09,29,02,28,4.80
2013,09,29,02,29,8.10
2013,09,29,02,30,6.40
2013,09,29,02,31,6.40
2013,09,29,02,32,1.60
2013,09,29,02,33,8.10
2013,09,29,02,34,4.80
2013,09,29,02,35,6.40
2013,09,29,02,36,6.40
2013,09,29,02,37,6.40
2013,09,29,02,38,8.10
2013,09,29,02,39,4.80
2013,09,29,02,40,8.10
2013,09,29,02,41,9.60
2013,09,29,02,42,14.50
2013,09,29,02,43,8.10
2013,09,29,02,44,4.80
2013,09,29,02,45,3.20
2013,09,29,02,50,3.20
2013,09,29,02,51,8.10
2013,09,29,02,52,4.80
2013,09,29,02,53,4.80
2013,09,29,02,54,3.20
2013,09,29,02,55,1.60
2013,09,29,02,56,4.80
2013,09,29,02,57,3.20
2013,09,29,02,58,3.20
2013,09,29,02,59,3.20
2013,09,29,03,00,3.20
2013,09,29,03,01,4.80
2013,09,29,03,02,3.20
2013,09,29,03,07,4.80
2013,09,29,03,08,4.80
2013,09,29,03,09,6.40
2013,09,29,03,11,1.60
2013,09,29,03,13,4.80
2013,09,29,03,14,6.40
2013,09,29,03,15,4.80
2013,09,29,03,18,1.60
2013,09,29,03,19,4.80
2013,09,29,03,20,8.10
2013,09,29,03,21,6.40
2013,09,29,03,22,8.10
2013,09,29,03,23,6.40
2013,09,29,03,24,8.10
2013,09,29,03,25,8.10
2013,09,29,03,26,9.60
2013,09,29,03,27,11.30
2013,09,29,03,28,14.50
2013,09,29,03,29,14.50
2013,09,29,03,30,12.90
2013,09,29,03,31,17.70
2013,09,29,03,32,14.50
2013,09,29,03,33,16.10
2013,09,29,03,34,16.10
2013,09,29,03,35,16.10
2013,09,29,03,36,17.70
2013,09,29,03,37,17.70
2013,09,29,03,38,14.50
2013,09,29,03,39,12.90
2013,09,29,03,40,9.60
2013,09,29,03,41,8.10
2013,09,29,03,42,9.60
2013,09,29,03,43,9.60
2013,09,29,03,44,9.60
2013,09,29,03,45,14.50
2013,09,29,03,46,16.10
2013,09,29,03,47,16.10
2013,09,29,03,48,8.10
2013,09,29,03,49,11.30
2013,09,29,03,50,16.10
2013,09,29,03,51,11.30
2013,09,29,03,52,11.30
2013,09,29,03,53,8.10
2013,09,29,03,54,6.40
2013,09,29,03,55,6.40
2013,09,29,03,56,4.80
2013,09,29,03,57,3.20
2013,09,29,03,58,6.40
2013,09,29,03,59,4.80
2013,09,29,04,01,3.20
2013,09,29,04,02,1.60
2013,09,29,04,05,1.60
2013,09,29,04,13,1.60
2013,09,29,04,14,1.60
2013,09,29,04,17,4.80
2013,09,29,04,18,4.80
2013,09,29,04,19,3.20
2013,09,29,04,20,4.80
2013,09,29,04,21,8.10
2013,09,29,04,22,8.10
2013,09,29,04,23,8.10
2013,09,29,04,24,9.60
2013,09,29,04,25,8.10
2013,09,29,04,26,8.10
2013,09,29,04,27,9.60
2013,09,29,04,28,8.10
2013,09,29,04,29,9.60
2013,09,29,04,30,9.60
2013,09,29,04,31,8.10
2013,09,29,04,32,11.30
2013,09,29,04,33,14.50
2013,09,29,04,34,9.60
2013,09,29,04,35,9.60
2013,09,29,04,36,4.80
2013,09,29,04,37,1.60
2013,09,29,04,38,9.60
2013,09,29,04,39,3.20
2013,09,29,04,40,3.20
2013,09,29,04,41,3.20
2013,09,29,04,42,6.40
2013,09,29,04,43,8.10
2013,09,29,04,44,9.60
2013,09,29,04,45,6.40
2013,09,29,04,46,6.40
2013,09,29,04,47,4.80
2013,09,29,04,48,6.40
2013,09,29,04,49,9.60
2013,09,29,04,50,11.30
2013,09,29,04,51,11.30
2013,09,29,04,52,9.60
2013,09,29,04,53,8.10
2013,09,29,04,54,9.60
2013,09,29,04,55,11.30
2013,09,29,04,56,14.50
2013,09,29,04,57,6.40
2013,09,29,04,58,4.80
2013,09,29,04,59,4.80
2013,09,29,05,00,8.10
2013,09,29,05,01,8.10
2013,09,29,05,02,8.10
2013,09,29,05,03,9.60
2013,09,29,05,04,6.40
2013,09,29,05,05,9.60
2013,09,29,05,06,6.40
2013,09,29,05,07,8.10
2013,09,29,05,08,6.40
2013,09,29,05,09,3.20
2013,09,29,05,11,9.60
2013,09,29,05,12,9.60
2013,09,29,05,13,1.60
2013,09,29,05,14,6.40
2013,09,29,05,15,1.60
2013,09,29,05,16,4.80
2013,09,29,05,17,3.20
2013,09,29,05,18,4.80
2013,09,29,05,19,6.40
2013,09,29,05,20,6.40
2013,09,29,05,21,11.30
2013,09,29,05,22,8.10
2013,09,29,05,23,8.10
2013,09,29,05,24,11.30
2013,09,29,05,25,11.30
2013,09,29,05,26,9.60
2013,09,29,05,27,8.10
2013,09,29,05,28,8.10
2013,09,29,05,29,6.40
2013,09,29,05,30,8.10
2013,09,29,05,31,8.10
2013,09,29,05,32,8.10
2013,09,29,05,33,9.60
2013,09,29,05,34,11.30
2013,09,29,05,35,16.10
2013,09,29,05,36,14.50
2013,09,29,05,37,8.10
2013,09,29,05,38,14.50
2013,09,29,05,39,11.30
2013,09,29,05,40,11.30
2013,09,29,05,41,6.40
2013,09,29,05,42,11.30
2013,09,29,05,43,8.10
2013,09,29,05,44,11.30
2013,09,29,05,45,9.60
2013,09,29,05,46,8.10
2013,09,29,05,47,8.10
2013,09,29,05,48,3.20
2013,09,29,05,49,4.80
2013,09,29,05,50,8.10
2013,09,29,05,51,9.60
2013,09,29,05,52,8.10
2013,09,29,05,53,4.80
2013,09,29,05,54,8.10
2013,09,29,05,55,4.80
2013,09,29,05,57,3.20
2013,09,29,05,58,1.60
2013,09,29,05,59,1.60
2013,09,29,06,01,4.80
2013,09,29,06,02,4.80
2013,09,29,06,03,4.80
2013,09,29,06,04,9.60
2013,09,29,06,05,16.10
2013,09,29,06,06,11.30
2013,09,29,06,07,11.30
2013,09,29,06,08,11.30
2013,09,29,06,09,16.10
2013,09,29,06,10,11.30
2013,09,29,06,11,8.10
2013,09,29,06,12,14.50
2013,09,29,06,13,11.30
2013,09,29,06,14,11.30
2013,09,29,06,15,14.50
2013,09,29,06,16,16.10
2013,09,29,06,17,17.70
2013,09,29,06,18,19.30
2013,09,29,06,19,20.90
2013,09,29,06,20,20.90
2013,09,29,06,21,19.30
2013,09,29,06,22,24.20
2013,09,29,06,23,16.10
2013,09,29,06,24,16.10
2013,09,29,06,25,11.30
2013,09,29,06,26,16.10
2013,09,29,06,27,17.70
2013,09,29,06,28,14.50
2013,09,29,06,29,16.10
2013,09,29,06,30,19.30
2013,09,29,06,31,16.10
2013,09,29,06,32,16.10
2013,09,29,06,33,20.90
2013,09,29,06,34,17.70
2013,09,29,06,35,24.20
2013,09,29,06,36,16.10
2013,09,29,06,37,14.50
2013,09,29,06,38,11.30
2013,09,29,06,39,24.20
2013,09,29,06,40,20.90
2013,09,29,06,41,16.10
2013,09,29,06,42,16.10
2013,09,29,06,43,9.60
2013,09,29,06,44,14.50
2013,09,29,06,45,16.10
2013,09,29,06,46,16.10
2013,09,29,06,47,17.70
2013,09,29,06,48,11.30
2013,09,29,06,49,14.50
2013,09,29,06,50,11.30
2013,09,29,06,51,11.30
2013,09,29,06,52,16.10
2013,09,29,06,53,11.30
2013,09,29,06,54,14.50
2013,09,29,06,55,14.50
2013,09,29,06,56,16.10
2013,09,29,06,57,12.90
2013,09,29,06,58,16.10
2013,09,29,06,59,17.70
2013,09,29,07,00,12.90
2013,09,29,07,01,11.30
2013,09,29,07,02,19.30
2013,09,29,07,03,11.30
2013,09,29,07,04,16.10
2013,09,29,07,05,19.30
2013,09,29,07,06,19.30
2013,09,29,07,07,11.30
2013,09,29,07,08,9.60
2013,09,29,07,09,9.60
2013,09,29,07,10,9.60
2013,09,29,07,11,17.70
2013,09,29,07,12,16.10
2013,09,29,07,13,17.70
2013,09,29,07,14,6.40
2013,09,29,07,15,4.80
2013,09,29,07,16,8.10
2013,09,29,07,17,8.10
2013,09,29,07,18,6.40
2013,09,29,07,19,8.10
2013,09,29,07,20,8.10
2013,09,29,07,21,4.80
2013,09,29,07,22,9.60
2013,09,29,07,23,8.10
2013,09,29,07,24,4.80
2013,09,29,07,25,8.10
2013,09,29,07,26,6.40
2013,09,29,07,27,8.10
2013,09,29,07,28,6.40
2013,09,29,07,29,6.40
2013,09,29,07,30,8.10
2013,09,29,07,31,6.40
2013,09,29,07,32,8.10
2013,09,29,07,33,6.40
2013,09,29,07,34,6.40
2013,09,29,07,35,9.60
2013,09,29,07,36,9.60
2013,09,29,07,37,9.60
2013,09,29,07,38,16.10
2013,09,29,07,39,11.30
2013,09,29,07,40,12.90
2013,09,29,07,41,14.50
2013,09,29,07,42,14.50
2013,09,29,07,43,11.30
2013,09,29,07,44,16.10
2013,09,29,07,45,11.30
2013,09,29,07,46,17.70
2013,09,29,07,47,9.60
2013,09,29,07,48,16.10
2013,09,29,07,49,17.70
2013,09,29,07,50,9.60
2013,09,29,07,51,11.30
2013,09,29,07,52,11.30
2013,09,29,07,53,4.80
2013,09,29,07,54,14.50
2013,09,29,07,55,14.50
2013,09,29,07,56,8.10
2013,09,29,07,57,11.30
2013,09,29,07,58,11.30
2013,09,29,07,59,8.10
2013,09,29,08,00,9.60
2013,09,29,08,01,14.50
2013,09,29,08,02,6.40
2013,09,29,08,03,9.60
2013,09,29,08,04,8.10
2013,09,29,08,05,4.80
2013,09,29,08,06,8.10
2013,09,29,08,07,6.40
2013,09,29,08,08,11.30
2013,09,29,08,09,14.50
2013,09,29,08,10,8.10
2013,09,29,08,11,8.10
2013,09,29,08,12,11.30
2013,09,29,08,13,11.30
2013,09,29,08,14,11.30
2013,09,29,08,15,12.90
2013,09,29,08,16,17.70
2013,09,29,08,17,14.50
2013,09,29,08,18,11.30
2013,09,29,08,19,14.50
2013,09,29,08,20,14.50
2013,09,29,08,21,19.30
2013,09,29,08,22,14.50
2013,09,29,08,23,16.10
2013,09,29,08,24,11.30
2013,09,29,08,25,12.90
2013,09,29,08,26,14.50
2013,09,29,08,27,16.10
2013,09,29,08,28,17.70
2013,09,29,08,29,14.50
2013,09,29,08,30,19.30
2013,09,29,08,31,19.30
2013,09,29,08,32,16.10
2013,09,29,08,33,14.50
2013,09,29,08,34,16.10
2013,09,29,08,35,16.10
2013,09,29,08,36,16.10
2013,09,29,08,37,6.40
2013,09,29,08,38,14.50
2013,09,29,08,39,12.90
2013,09,29,08,40,9.60
2013,09,29,08,41,11.30
2013,09,29,08,42,11.30
2013,09,29,08,43,9.60
2013,09,29,08,44,14.50
2013,09,29,08,45,11.30
2013,09,29,08,46,14.50
2013,09,29,08,47,14.50
2013,09,29,08,48,9.60
2013,09,29,08,49,8.10
2013,09,29,08,50,8.10
2013,09,29,08,51,11.30
2013,09,29,08,52,11.30
2013,09,29,08,53,9.60
2013,09,29,08,54,11.30
2013,09,29,08,55,8.10
2013,09,29,08,56,8.10
2013,09,29,08,57,9.60
2013,09,29,08,58,11.30
2013,09,29,08,59,8.10
2013,09,29,09,00,9.60
2013,09,29,09,01,16.10
2013,09,29,09,02,9.60
2013,09,29,09,03,11.30
2013,09,29,09,04,11.30
2013,09,29,09,05,11.30
2013,09,29,09,06,11.30
2013,09,29,09,07,9.60
2013,09,29,09,08,6.40
2013,09,29,09,09,8.10
2013,09,29,09,10,11.30
2013,09,29,09,11,11.30
2013,09,29,09,12,11.30
2013,09,29,09,13,16.10
2013,09,29,09,14,16.10
2013,09,29,09,15,20.90
2013,09,29,09,16,17.70
2013,09,29,09,17,20.90
2013,09,29,09,18,20.90
2013,09,29,09,19,22.50
2013,09,29,09,20,14.50
2013,09,29,09,21,9.60
2013,09,29,09,22,16.10
2013,09,29,09,23,19.30
2013,09,29,09,24,17.70
2013,09,29,09,25,12.90
2013,09,29,09,26,11.30
2013,09,29,09,27,9.60
2013,09,29,09,28,17.70
2013,09,29,09,29,17.70
2013,09,29,09,30,14.50
2013,09,29,09,31,16.10
2013,09,29,09,32,16.10
2013,09,29,09,33,9.60
2013,09,29,09,34,9.60
2013,09,29,09,35,9.60
2013,09,29,09,36,11.30
2013,09,29,09,37,11.30
2013,09,29,09,38,8.10
2013,09,29,09,39,19.30
2013,09,29,09,40,8.10
2013,09,29,09,41,8.10
2013,09,29,09,42,8.10
2013,09,29,09,43,11.30
2013,09,29,09,44,9.60
2013,09,29,09,45,9.60
2013,09,29,09,46,20.90
2013,09,29,09,47,17.70
2013,09,29,09,48,9.60
2013,09,29,09,49,9.60
2013,09,29,09,50,9.60
2013,09,29,09,51,6.40
2013,09,29,09,52,6.40
2013,09,29,09,53,4.80
2013,09,29,09,54,9.60
2013,09,29,09,57,1.60
2013,09,29,10,07,1.60
2013,09,29,10,08,3.20
2013,09,29,10,09,8.10
2013,09,29,10,10,9.60
2013,09,29,10,11,6.40
2013,09,29,10,12,4.80
2013,09,29,10,13,8.10
2013,09,29,10,14,9.60
2013,09,29,10,15,6.40
2013,09,29,10,16,6.40
2013,09,29,10,18,6.40
2013,09,29,10,19,4.80
2013,09,29,10,20,4.80
2013,09,29,10,21,6.40
2013,09,29,10,22,14.50
2013,09,29,10,23,4.80
2013,09,29,10,24,11.30
2013,09,29,10,25,6.40
2013,09,29,10,26,8.10
2013,09,29,10,27,6.40
2013,09,29,10,28,9.60
2013,09,29,10,29,11.30
2013,09,29,10,30,9.60
2013,09,29,10,31,9.60
2013,09,29,10,32,8.10
2013,09,29,10,33,11.30
2013,09,29,10,34,11.30
2013,09,29,10,35,17.70
2013,09,29,10,36,14.50
2013,09,29,10,37,17.70
2013,09,29,10,38,17.70
2013,09,29,10,39,9.60
2013,09,29,10,40,16.10
2013,09,29,10,41,11.30
2013,09,29,10,42,17.70
2013,09,29,10,43,12.90
2013,09,29,10,44,14.50
2013,09,29,10,45,9.60
2013,09,29,10,46,11.30
2013,09,29,10,47,6.40
2013,09,29,10,48,9.60
2013,09,29,10,49,12.90
2013,09,29,10,50,6.40
2013,09,29,10,51,9.60
2013,09,29,10,52,9.60
2013,09,29,10,53,4.80
2013,09,29,10,54,9.60
2013,09,29,10,55,16.10
2013,09,29,10,56,11.30
2013,09,29,10,57,20.90
2013,09,29,10,58,19.30
2013,09,29,10,59,19.30
2013,09,29,11,00,17.70
2013,09,29,11,01,19.30
2013,09,29,11,02,17.70
2013,09,29,11,03,19.30
2013,09,29,11,04,19.30
2013,09,29,11,05,16.10
2013,09,29,11,06,16.10
2013,09,29,11,07,14.50
2013,09,29,11,08,11.30
2013,09,29,11,09,17.70
2013,09,29,11,10,16.10
2013,09,29,11,11,11.30
2013,09,29,11,12,8.10
2013,09,29,11,13,16.10
2013,09,29,11,14,12.90
2013,09,29,11,15,9.60
2013,09,29,11,16,9.60
2013,09,29,11,17,14.50
2013,09,29,11,18,9.60
2013,09,29,11,19,8.10
2013,09,29,11,20,11.30
2013,09,29,11,21,11.30
2013,09,29,11,22,14.50
2013,09,29,11,23,14.50
2013,09,29,11,24,11.30
2013,09,29,11,25,11.30
2013,09,29,11,26,12.90
2013,09,29,11,27,9.60
2013,09,29,11,28,14.50
2013,09,29,11,29,9.60
2013,09,29,11,30,9.60
2013,09,29,11,31,8.10
2013,09,29,11,32,11.30
2013,09,29,11,33,11.30
2013,09,29,11,34,9.60
2013,09,29,11,35,11.30
2013,09,29,11,36,11.30
2013,09,29,11,37,11.30
2013,09,29,11,38,14.50
2013,09,29,11,39,12.90
2013,09,29,11,40,11.30
2013,09,29,11,41,11.30
2013,09,29,11,42,16.10
2013,09,29,11,43,14.50
2013,09,29,11,44,9.60
2013,09,29,11,45,9.60
2013,09,29,11,46,9.60
2013,09,29,11,47,9.60
2013,09,29,11,48,8.10
2013,09,29,11,49,9.60
2013,09,29,11,50,11.30
2013,09,29,11,51,8.10
2013,09,29,11,52,6.40
2013,09,29,11,53,4.80
2013,09,29,11,54,6.40
2013,09,29,11,55,8.10
2013,09,29,11,56,6.40
2013,09,29,11,57,8.10
2013,09,29,11,58,3.20
2013,09,29,11,59,1.60
2013,09,29,12,00,6.40
2013,09,29,12,02,6.40
2013,09,29,12,03,4.80
2013,09,29,12,04,3.20
2013,09,29,12,05,4.80
2013,09,29,12,06,4.80
2013,09,29,12,07,4.80
2013,09,29,12,08,6.40
2013,09,29,12,09,4.80
2013,09,29,12,10,3.20
2013,09,29,12,11,8.10
2013,09,29,12,12,8.10
2013,09,29,12,13,8.10
2013,09,29,12,14,8.10
2013,09,29,12,15,8.10
2013,09,29,12,16,6.40
2013,09,29,12,17,8.10
2013,09,29,12,18,9.60
2013,09,29,12,19,4.80
2013,09,29,12,20,8.10
2013,09,29,12,21,6.40
2013,09,29,12,22,4.80
2013,09,29,12,23,8.10
2013,09,29,12,25,3.20
2013,09,29,12,26,1.60
2013,09,29,12,27,3.20
2013,09,29,12,28,4.80
2013,09,29,12,29,3.20
2013,09,29,12,30,3.20
2013,09,29,12,35,4.80
2013,09,29,12,36,4.80
2013,09,29,12,37,4.80
2013,09,29,12,50,1.60
2013,09,29,12,56,1.60
2013,09,29,12,57,1.60
2013,09,29,13,05,1.60
2013,09,29,13,06,1.60
2013,09,29,13,07,4.80
2013,09,29,13,08,3.20
2013,09,29,13,09,3.20
2013,09,29,13,15,4.80
2013,09,29,13,16,1.60
2013,09,29,13,18,1.60
2013,09,29,13,20,3.20
2013,09,29,13,21,4.80
2013,09,29,13,22,4.80
2013,09,29,13,23,3.20
2013,09,29,13,24,4.80
2013,09,29,13,25,4.80
2013,09,29,13,30,4.80
2013,09,29,13,31,3.20
2013,09,29,13,32,4.80
2013,09,29,13,33,4.80
2013,09,29,13,34,4.80
2013,09,29,13,35,4.80
2013,09,29,13,36,3.20
2013,09,29,13,37,8.10
2013,09,29,13,38,4.80
2013,09,29,13,39,4.80
2013,09,29,13,40,6.40
2013,09,29,13,41,3.20
2013,09,29,13,42,1.60
2013,09,29,13,46,4.80
2013,09,29,13,49,4.80
2013,09,29,13,52,1.60
2013,09,29,13,53,1.60
2013,09,29,13,54,3.20
2013,09,29,13,55,3.20
2013,09,29,13,56,4.80
2013,09,29,13,57,1.60
2013,09,29,13,58,6.40
2013,09,29,13,59,6.40
2013,09,29,14,00,6.40
2013,09,29,14,01,4.80
2013,09,29,14,02,8.10
2013,09,29,14,03,8.10
2013,09,29,14,04,6.40
2013,09,29,14,05,8.10
2013,09,29,14,06,6.40
2013,09,29,14,07,8.10
2013,09,29,14,08,3.20
2013,09,29,14,09,4.80
2013,09,29,14,10,8.10
2013,09,29,14,11,4.80
2013,09,29,14,12,3.20
2013,09,29,14,13,4.80
2013,09,29,14,14,6.40
2013,09,29,14,15,6.40
2013,09,29,14,16,8.10
2013,09,29,14,17,6.40
2013,09,29,14,18,6.40
2013,09,29,14,19,4.80
2013,09,29,14,22,4.80
2013,09,29,14,27,1.60
2013,09,29,14,28,1.60
2013,09,29,14,31,4.80
2013,09,29,14,32,8.10
2013,09,29,14,33,8.10
2013,09,29,14,34,9.60
2013,09,29,14,35,9.60
2013,09,29,14,36,4.80
2013,09,29,14,37,4.80
2013,09,29,14,38,4.80
2013,09,29,14,39,9.60
2013,09,29,14,40,8.10
2013,09,29,14,41,4.80
2013,09,29,14,42,6.40
2013,09,29,14,43,4.80
2013,09,29,14,44,6.40
2013,09,29,14,45,9.60
2013,09,29,14,46,6.40
2013,09,29,14,49,3.20
2013,09,29,14,50,6.40
2013,09,29,14,51,6.40
2013,09,29,14,52,8.10
2013,09,29,14,53,6.40
2013,09,29,14,55,8.10
2013,09,29,14,56,4.80
2013,09,29,14,57,8.10
2013,09,29,14,58,8.10
2013,09,29,14,59,9.60
2013,09,29,15,00,8.10
2013,09,29,15,01,8.10
2013,09,29,15,02,8.10
2013,09,29,15,03,8.10
2013,09,29,15,04,4.80
2013,09,29,15,05,1.60
2013,09,29,15,06,4.80
2013,09,29,15,07,6.40
2013,09,29,15,08,8.10
2013,09,29,15,09,6.40
2013,09,29,15,10,4.80
2013,09,29,15,11,4.80
2013,09,29,15,12,4.80
2013,09,29,15,13,9.60
2013,09,29,15,14,8.10
2013,09,29,15,15,9.60
2013,09,29,15,16,11.30
2013,09,29,15,17,11.30
2013,09,29,15,18,11.30
2013,09,29,15,19,12.90
2013,09,29,15,20,16.10
2013,09,29,15,21,16.10
2013,09,29,15,22,14.50
2013,09,29,15,23,16.10
2013,09,29,15,24,14.50
2013,09,29,15,25,8.10
2013,09,29,15,26,11.30
2013,09,29,15,27,11.30
2013,09,29,15,28,8.10
2013,09,29,15,29,6.40
2013,09,29,15,30,11.30
2013,09,29,15,31,9.60
2013,09,29,15,32,16.10
2013,09,29,15,33,11.30
2013,09,29,15,34,11.30
2013,09,29,15,35,9.60
2013,09,29,15,36,20.90
2013,09,29,15,37,17.70
2013,09,29,15,38,14.50
2013,09,29,15,39,22.50
2013,09,29,15,40,27.40
2013,09,29,15,41,33.80
2013,09,29,15,42,22.50
2013,09,29,15,43,32.20
2013,09,29,15,44,33.80
2013,09,29,15,45,29.00
2013,09,29,15,46,27.40
2013,09,29,15,47,25.70
2013,09,29,15,48,24.20
2013,09,29,15,49,27.40
2013,09,29,15,50,29.00
2013,09,29,15,51,27.40
2013,09,29,15,52,38.60
2013,09,29,15,53,25.70
2013,09,29,15,54,29.00
2013,09,29,15,55,27.40
2013,09,29,15,56,20.90
2013,09,29,15,57,30.60
2013,09,29,15,58,35.40
2013,09,29,15,59,29.00
2013,09,29,16,00,38.60
2013,09,29,16,01,32.20
2013,09,29,16,02,30.60
2013,09,29,16,03,20.90
2013,09,29,16,04,29.00
2013,09,29,16,05,33.80
2013,09,29,16,06,35.40
2013,09,29,16,07,25.70
2013,09,29,16,08,22.50
2013,09,29,16,09,37.00
2013,09,29,16,10,24.20
2013,09,29,16,11,17.70
2013,09,29,16,12,30.60
2013,09,29,16,13,27.40
2013,09,29,16,14,29.00
2013,09,29,16,15,32.20
2013,09,29,16,16,20.90
2013,09,29,16,17,33.80
2013,09,29,16,18,35.40
2013,09,29,16,19,24.20
2013,09,29,16,20,20.90
2013,09,29,16,21,22.50
2013,09,29,16,22,32.20
2013,09,29,16,23,38.60
2013,09,29,16,24,27.40
2013,09,29,16,25,29.00
2013,09,29,16,26,19.30
2013,09,29,16,27,22.50
2013,09,29,16,28,33.80
2013,09,29,16,29,30.60
2013,09,29,16,30,54.70
2013,09,29,16,31,49.90
2013,09,29,16,32,33.80
2013,09,29,16,33,20.90
2013,09,29,16,34,37.00
2013,09,29,16,35,37.00
2013,09,29,16,36,30.60
2013,09,29,16,37,30.60
2013,09,29,16,38,41.80
2013,09,29,16,39,30.60
2013,09,29,16,40,35.40
2013,09,29,16,41,37.00
2013,09,29,16,42,32.20
2013,09,29,16,43,37.00
2013,09,29,16,44,38.60
2013,09,29,16,45,51.50
2013,09,29,16,46,35.40
2013,09,29,16,47,35.40
2013,09,29,16,48,43.50
2013,09,29,16,49,32.20
2013,09,29,16,50,25.70
2013,09,29,16,51,40.20
2013,09,29,16,52,48.30
2013,09,29,16,53,46.70
2013,09,29,16,54,53.10
2013,09,29,16,55,43.50
2013,09,29,16,56,38.60
2013,09,29,16,57,35.40
2013,09,29,16,58,43.50
2013,09,29,16,59,30.60
2013,09,29,17,00,32.20
2013,09,29,17,01,43.50
2013,09,29,17,02,41.80
2013,09,29,17,03,40.20
2013,09,29,17,04,40.20
2013,09,29,17,05,45.10
2013,09,29,17,06,32.20
2013,09,29,17,07,41.80
2013,09,29,17,08,37.00
2013,09,29,17,09,37.00
2013,09,29,17,10,30.60
2013,09,29,17,11,41.80
2013,09,29,17,12,25.70
2013,09,29,17,13,35.40
2013,09,29,17,14,32.20
2013,09,29,17,15,41.80
2013,09,29,17,16,29.00
2013,09,29,17,17,30.60
2013,09,29,17,18,33.80
2013,09,29,17,19,46.70
2013,09,29,17,20,29.00
2013,09,29,17,21,30.60
2013,09,29,17,22,45.10
2013,09,29,17,23,40.20
2013,09,29,17,24,48.30
2013,09,29,17,25,45.10
2013,09,29,17,26,30.60
2013,09,29,17,27,35.40
2013,09,29,17,28,54.70
2013,09,29,17,29,41.80
2013,09,29,17,30,40.20
2013,09,29,17,31,35.40
2013,09,29,17,32,48.30
2013,09,29,17,33,43.50
2013,09,29,17,34,40.20
2013,09,29,17,35,48.30
2013,09,29,17,36,53.10
2013,09,29,17,37,61.20
2013,09,29,17,38,62.70
2013,09,29,17,39,51.50
2013,09,29,17,40,38.60
2013,09,29,17,41,53.10
2013,09,29,17,42,48.30
2013,09,29,17,43,45.10
2013,09,29,17,44,49.90
2013,09,29,17,45,33.80
2013,09,29,17,46,38.60
2013,09,29,17,47,43.50
2013,09,29,17,48,48.30
2013,09,29,17,49,45.10
2013,09,29,17,50,40.20
2013,09,29,17,51,49.90
2013,09,29,17,52,32.20
2013,09,29,17,53,35.40
2013,09,29,17,54,46.70
2013,09,29,17,55,40.20
2013,09,29,17,56,41.80
2013,09,29,17,57,38.60
2013,09,29,17,58,43.50
2013,09,29,17,59,46.70
2013,09,29,18,00,38.60
2013,09,29,18,01,38.60
2013,09,29,18,02,33.80
2013,09,29,18,03,43.50
2013,09,29,18,04,56.30
2013,09,29,18,05,29.00
2013,09,29,18,06,38.60
2013,09,29,18,07,35.40
2013,09,29,18,08,25.70
2013,09,29,18,09,29.00
2013,09,29,18,10,33.80
2013,09,29,18,11,27.40
2013,09,29,18,12,30.60
2013,09,29,18,13,29.00
2013,09,29,18,14,45.10
2013,09,29,18,15,30.60
2013,09,29,18,16,37.00
2013,09,29,18,17,43.50
2013,09,29,18,18,40.20
2013,09,29,18,19,40.20
2013,09,29,18,20,29.00
2013,09,29,18,21,29.00
2013,09,29,18,22,32.20
2013,09,29,18,23,29.00
2013,09,29,18,24,57.90
2013,09,29,18,25,51.50
2013,09,29,18,26,37.00
2013,09,29,18,27,46.70
2013,09,29,18,28,43.50
2013,09,29,18,29,48.30
2013,09,29,18,30,37.00
2013,09,29,18,31,32.20
2013,09,29,18,32,43.50
2013,09,29,18,33,56.30
2013,09,29,18,34,30.60
2013,09,29,18,35,35.40
2013,09,29,18,36,33.80
2013,09,29,18,37,33.80
2013,09,29,18,38,38.60
2013,09,29,18,39,35.40
2013,09,29,18,40,48.30
2013,09,29,18,41,46.70
2013,09,29,18,42,53.10
2013,09,29,18,43,37.00
2013,09,29,18,44,38.60
2013,09,29,18,45,38.60
2013,09,29,18,46,35.40
2013,09,29,18,47,40.20
2013,09,29,18,48,32.20
2013,09,29,18,49,40.20
2013,09,29,18,50,41.80
2013,09,29,18,51,27.40
2013,09,29,18,52,40.20
2013,09,29,18,53,45.10
2013,09,29,18,54,43.50
2013,09,29,18,55,27.40
2013,09,29,18,56,49.90
2013,09,29,18,57,45.10
2013,09,29,18,58,41.80
2013,09,29,18,59,33.80
2013,09,29,19,00,45.10
2013,09,29,19,01,48.30
2013,09,29,19,02,41.80
2013,09,29,19,03,57.90
2013,09,29,19,04,51.50
2013,09,29,19,05,45.10
2013,09,29,19,06,35.40
2013,09,29,19,07,41.80
2013,09,29,19,08,48.30
2013,09,29,19,09,48.30
2013,09,29,19,10,45.10
2013,09,29,19,11,56.30
2013,09,29,19,12,45.10
2013,09,29,19,13,62.70
2013,09,29,19,14,53.10
2013,09,29,19,15,46.70
2013,09,29,19,16,45.10
2013,09,29,19,17,56.30
2013,09,29,19,18,33.80
2013,09,29,19,19,45.10
2013,09,29,19,20,41.80
2013,09,29,19,21,41.80